| time (UTC) | temp C | wind direction | speed KPH | gust KPH | rain 1hr cm | rain 24hr cm | rain mn cm | humidity % | barometer mb |
| 20260505051011 | 9 | 128 | 6.4 | 8.0 | 0.00 | 0.00 | 0.00 | 50 | 1015.6 |
| 20260505050547 | 9 | 147 | 8.0 | 17.7 | 0.00 | 0.00 | 0.00 | 49 | 1015.7 |
| 20260505041547 | 10 | 154 | 8.0 | 22.5 | 0.00 | 0.00 | 0.00 | 46 | 1015.7 |
| 20260505041047 | 10 | 109 | 6.4 | 11.3 | 0.00 | 0.00 | 0.00 | 47 | 1015.8 |
| 20260505035047 | 10 | 130 | 6.4 | 12.9 | 0.00 | 0.00 | 0.00 | 47 | 1015.8 |
| 20260505034511 | 10 | 177 | 11.3 | 32.2 | 0.00 | 0.00 | 0.00 | 46 | 1015.6 |
| 20260505034011 | 10 | 129 | 11.3 | 19.3 | 0.00 | 0.00 | 0.00 | 46 | 1015.5 |
| 20260505033547 | 10 | 140 | 9.7 | 17.7 | 0.00 | 0.00 | 0.00 | 47 | 1015.4 |
| 20260505033012 | 10 | 106 | 19.3 | 20.9 | 0.00 | 0.00 | 0.00 | 45 | 1015.4 |
| 20260505032547 | 10 | 196 | 8.0 | 14.5 | 0.00 | 0.00 | 0.00 | 43 | 1015.3 |
| 20260505032047 | 10 | 133 | 19.3 | 22.5 | 0.00 | 0.00 | 0.00 | 42 | 1015.2 |
| 20260505031547 | 10 | 257 | 11.3 | 20.9 | 0.00 | 0.00 | 0.00 | 42 | 1015.0 |
| 20260505031011 | 10 | 198 | 4.8 | 14.5 | 0.00 | 0.00 | 0.00 | 44 | 1015.2 |
| 20260505030547 | 10 | 122 | 8.0 | 20.9 | 0.00 | 0.00 | 0.00 | 43 | 1015.2 |
| 20260505030047 | 10 | 141 | 8.0 | 25.7 | 0.00 | 0.00 | 0.00 | 44 | 1015.1 |
| 20260505025546 | 10 | 125 | 8.0 | 11.3 | 0.00 | 0.00 | 0.00 | 43 | 1015.2 |
| 20260505025012 | 11 | 130 | 11.3 | 17.7 | 0.00 | 0.00 | 0.00 | 43 | 1015.0 |
| 20260505023046 | 11 | 162 | 8.0 | 22.5 | 0.00 | 0.00 | 0.00 | 41 | 1014.7 |
| 20260505022547 | 11 | 177 | 4.8 | 24.1 | 0.00 | 0.00 | 0.00 | 40 | 1015.0 |
| 20260505022011 | 11 | 132 | 8.0 | 19.3 | 0.00 | 0.00 | 0.00 | 40 | 1014.9 |
| 20260505021546 | 11 | 219 | 3.2 | 17.7 | 0.00 | 0.00 | 0.00 | 40 | 1014.9 |
| 20260505021047 | 11 | 198 | 17.7 | 25.7 | 0.00 | 0.00 | 0.00 | 39 | 1014.9 |
| 20260505015011 | 12 | 174 | 14.5 | 14.5 | 0.00 | 0.00 | 0.00 | 38 | 1014.9 |
| 20260505014546 | 12 | 192 | 12.9 | 29.0 | 0.00 | 0.00 | 0.00 | 39 | 1014.6 |
| 20260505014047 | 12 | 158 | 11.3 | 16.1 | 0.00 | 0.00 | 0.00 | 39 | 1014.5 |
| 20260505013547 | 12 | 104 | 8.0 | 12.9 | 0.00 | 0.00 | 0.00 | 38 | 1014.9 |
| 20260505013011 | 12 | 211 | 19.3 | 20.9 | 0.00 | 0.00 | 0.00 | 38 | 1014.7 |
| 20260505012547 | 12 | 181 | 17.7 | 24.1 | 0.00 | 0.00 | 0.00 | 39 | 1014.9 |
| 20260505012046 | 12 | 127 | 8.0 | 12.9 | 0.00 | 0.00 | 0.00 | 40 | 1014.9 |
| 20260505011547 | 12 | 189 | 17.7 | 20.9 | 0.00 | 0.00 | 0.00 | 39 | 1014.7 |
| 20260505005547 | 13 | 174 | 17.7 | 37.0 | 0.00 | 0.00 | 0.00 | 38 | 1014.6 |
| 20260505005047 | 13 | 146 | 16.1 | 30.6 | 0.00 | 0.00 | 0.00 | 37 | 1014.9 |
| 20260505004547 | 13 | 205 | 33.8 | 37.0 | 0.00 | 0.00 | 0.00 | 38 | 1014.6 |
| 20260505004011 | 13 | 175 | 16.1 | 27.4 | 0.00 | 0.00 | 0.00 | 39 | 1015.0 |
| 20260505003547 | 13 | 169 | 9.7 | 38.6 | 0.00 | 0.00 | 0.00 | 38 | 1015.0 |
| 20260505003047 | 13 | 190 | 14.5 | 20.9 | 0.00 | 0.00 | 0.00 | 38 | 1015.0 |
| 20260505002511 | 14 | 121 | 6.4 | 24.1 | 0.00 | 0.00 | 0.00 | 35 | 1015.1 |
| 20260505002012 | 15 | 187 | 20.9 | 33.8 | 0.00 | 0.00 | 0.00 | 34 | 1015.0 |
| 20260505001547 | 15 | 138 | 19.3 | 24.1 | 0.00 | 0.00 | 0.00 | 34 | 1014.9 |
| 20260504235546 | 13 | 190 | 14.5 | 46.7 | 0.00 | 0.00 | 0.00 | 34 | 1014.7 |
| 20260504235012 | 15 | 212 | 17.7 | 32.2 | 0.00 | 0.00 | 0.00 | 32 | 1014.7 |
| 20260504233012 | 15 | 217 | 20.9 | 35.4 | 0.00 | 0.00 | 0.00 | 30 | 1014.9 |
| 20260504232546 | 15 | 183 | 8.0 | 19.3 | 0.00 | 0.00 | 0.00 | 30 | 1014.7 |
| 20260504232047 | 15 | 181 | 12.9 | 37.0 | 0.00 | 0.00 | 0.00 | 31 | 1015.0 |
| 20260504231546 | 15 | 194 | 24.1 | 40.2 | 0.00 | 0.00 | 0.00 | 32 | 1015.1 |
| 20260504231046 | 15 | 203 | 11.3 | 29.0 | 0.00 | 0.00 | 0.00 | 33 | 1015.1 |
| 20260504230547 | 15 | 176 | 25.7 | 27.4 | 0.00 | 0.00 | 0.00 | 32 | 1015.0 |
| 20260504230012 | 15 | 194 | 17.7 | 32.2 | 0.00 | 0.00 | 0.00 | 32 | 1015.0 |
| 20260504225546 | 15 | 167 | 11.3 | 27.4 | 0.00 | 0.00 | 0.00 | 32 | 1014.9 |
| 20260504225047 | 14 | 178 | 25.7 | 40.2 | 0.00 | 0.00 | 0.00 | 33 | 1015.1 |
| 20260504223011 | 16 | 173 | 9.7 | 24.1 | 0.00 | 0.00 | 0.00 | 30 | 1015.5 |
| 20260504222547 | 15 | 232 | 12.9 | 24.1 | 0.00 | 0.00 | 0.00 | 30 | 1015.2 |
| 20260504222046 | 15 | 186 | 17.7 | 20.9 | 0.00 | 0.00 | 0.00 | 30 | 1015.3 |
| 20260504221517 | 15 | 160 | 22.5 | 51.5 | 0.00 | 0.00 | 0.00 | 31 | 1015.4 |
| 20260504221011 | 15 | 180 | 16.1 | 33.8 | 0.00 | 0.00 | 0.00 | 32 | 1015.5 |
| 20260504220547 | 15 | 147 | 11.3 | 41.8 | 0.00 | 0.00 | 0.00 | 32 | 1015.4 |
| 20260504220016 | 16 | 135 | 11.3 | 40.2 | 0.00 | 0.00 | 0.00 | 32 | 1015.4 |
| 20260504215547 | 16 | 181 | 20.9 | 32.2 | 0.00 | 0.00 | 0.00 | 33 | 1015.4 |
| 20260504215012 | 16 | 150 | 16.1 | 37.0 | 0.00 | 0.00 | 0.00 | 32 | 1015.4 |
| 20260504214515 | 15 | 201 | 24.1 | 32.2 | 0.00 | 0.00 | 0.00 | 34 | 1015.5 |
| 20260504214047 | 16 | 159 | 16.1 | 43.5 | 0.00 | 0.00 | 0.00 | 31 | 1015.6 |
| 20260504213547 | 15 | 143 | 14.5 | 35.4 | 0.00 | 0.00 | 0.00 | 28 | 1015.6 |
| 20260504213014 | 15 | 190 | 20.9 | 32.2 | 0.00 | 0.00 | 0.00 | 32 | 1015.5 |
| 20260504212547 | 16 | 117 | 4.8 | 30.6 | 0.00 | 0.00 | 0.00 | 32 | 1015.6 |
| 20260504212012 | 16 | 209 | 12.9 | 24.1 | 0.00 | 0.00 | 0.00 | 31 | 1015.7 |
| 20260504211514 | 15 | 214 | 22.5 | 54.7 | 0.00 | 0.00 | 0.00 | 32 | 1015.8 |
| 20260504211047 | 15 | 178 | 17.7 | 38.6 | 0.00 | 0.00 | 0.00 | 36 | 1015.9 |
| 20260504210512 | 15 | 165 | 17.7 | 43.5 | 0.00 | 0.00 | 0.00 | 42 | 1015.6 |
| 20260504210011 | 15 | 187 | 24.1 | 35.4 | 0.00 | 0.00 | 0.00 | 40 | 1015.6 |
| 20260504205547 | 15 | 198 | 33.8 | 61.2 | 0.00 | 0.00 | 0.00 | 37 | 1015.7 |
| 20260504205012 | 15 | 172 | 25.7 | 35.4 | 0.00 | 0.00 | 0.00 | 38 | 1015.9 |
| 20260504204510 | 15 | 217 | 29.0 | 35.4 | 0.00 | 0.00 | 0.00 | 41 | 1015.9 |
| 20260504204047 | 15 | 209 | 33.8 | 38.6 | 0.00 | 0.00 | 0.00 | 38 | 1015.9 |
| 20260504203547 | 15 | 195 | 32.2 | 40.2 | 0.00 | 0.00 | 0.00 | 39 | 1015.8 |
| 20260504203009 | 15 | 143 | 25.7 | 38.6 | 0.00 | 0.00 | 0.00 | 43 | 1015.6 |
| 20260504202546 | 16 | 176 | 16.1 | 24.1 | 0.00 | 0.00 | 0.00 | 41 | 1015.5 |
| 20260504202047 | 15 | 216 | 24.1 | 33.8 | 0.00 | 0.00 | 0.00 | 42 | 1015.6 |
| 20260504201507 | 15 | 182 | 22.5 | 43.5 | 0.00 | 0.00 | 0.00 | 43 | 1015.8 |
| 20260504201012 | 16 | 186 | 24.1 | 35.4 | 0.00 | 0.00 | 0.00 | 41 | 1015.7 |
| 20260504200547 | 15 | 186 | 20.9 | 45.1 | 0.00 | 0.00 | 0.00 | 49 | 1015.7 |
| 20260504200006 | 15 | 107 | 24.1 | 30.6 | 0.00 | 0.00 | 0.00 | 43 | 1015.9 |
| 20260504195546 | 15 | 192 | 12.9 | 22.5 | 0.00 | 0.00 | 0.00 | 43 | 1015.9 |
| 20260504195047 | 14 | 125 | 14.5 | 53.1 | 0.00 | 0.00 | 0.00 | 49 | 1015.9 |
| 20260504193004 | 15 | 192 | 22.5 | 33.8 | 0.00 | 0.00 | 0.00 | 52 | 1015.9 |
| 20260504192512 | 15 | 113 | 8.0 | 32.2 | 0.00 | 0.00 | 0.00 | 49 | 1015.9 |
| 20260504192012 | 15 | 122 | 12.9 | 29.0 | 0.00 | 0.00 | 0.00 | 47 | 1015.7 |
| 20260504191502 | 15 | 139 | 37.0 | 48.3 | 0.00 | 0.00 | 0.00 | 44 | 1015.6 |
| 20260504191012 | 15 | 137 | 22.5 | 38.6 | 0.00 | 0.00 | 0.00 | 46 | 1015.9 |
| 20260504190547 | 15 | 152 | 40.2 | 41.8 | 0.00 | 0.00 | 0.00 | 44 | 1015.9 |
| 20260504190002 | 15 | 131 | 11.3 | 38.6 | 0.00 | 0.00 | 0.00 | 46 | 1016.2 |
| 20260504185546 | 14 | 168 | 24.1 | 45.1 | 0.00 | 0.00 | 0.00 | 47 | 1016.3 |
| 20260504185011 | 15 | 157 | 16.1 | 41.8 | 0.00 | 0.00 | 0.00 | 43 | 1016.1 |
| 20260504184549 | 15 | 140 | 24.1 | 38.6 | 0.00 | 0.00 | 0.00 | 45 | 1016.2 |
| 20260504184047 | 14 | 173 | 17.7 | 46.7 | 0.00 | 0.00 | 0.00 | 48 | 1016.4 |
| 20260504183547 | 14 | 218 | 35.4 | 43.5 | 0.00 | 0.00 | 0.00 | 43 | 1016.2 |
| 20260504183011 | 15 | 132 | 17.7 | 29.0 | 0.00 | 0.00 | 0.00 | 46 | 1016.1 |
| 20260504182547 | 14 | 107 | 11.3 | 33.8 | 0.00 | 0.00 | 0.00 | 48 | 1016.1 |
| 20260504182047 | 15 | 161 | 14.5 | 25.7 | 0.00 | 0.00 | 0.00 | 45 | 1015.9 |
| 20260504181547 | 14 | 190 | 17.7 | 32.2 | 0.00 | 0.00 | 0.00 | 48 | 1015.9 |
| 20260504181047 | 15 | 139 | 12.9 | 25.7 | 0.00 | 0.00 | 0.00 | 48 | 1016.3 |
| 20260504180547 | 14 | 191 | 17.7 | 29.0 | 0.00 | 0.00 | 0.00 | 48 | 1016.3 |
| 20260504180011 | 14 | 182 | 14.5 | 30.6 | 0.00 | 0.00 | 0.00 | 47 | 1016.3 |
| 20260504175546 | 14 | 138 | 12.9 | 33.8 | 0.00 | 0.00 | 0.00 | 48 | 1016.0 |
| 20260504174011 | 14 | 207 | 27.4 | 33.8 | 0.00 | 0.00 | 0.00 | 45 | 1016.0 |
| 20260504173547 | 14 | 154 | 11.3 | 30.6 | 0.00 | 0.00 | 0.00 | 47 | 1015.9 |
| 20260504173011 | 14 | 158 | 14.5 | 29.0 | 0.00 | 0.00 | 0.00 | 48 | 1016.1 |
| 20260504172546 | 14 | 227 | 19.3 | 32.2 | 0.00 | 0.00 | 0.00 | 48 | 1016.1 |
| 20260504172046 | 15 | 118 | 20.9 | 24.1 | 0.00 | 0.00 | 0.00 | 47 | 1016.2 |
| 20260504171546 | 14 | 115 | 22.5 | 30.6 | 0.00 | 0.00 | 0.00 | 48 | 1016.3 |
| 20260504171047 | 14 | 119 | 16.1 | 22.5 | 0.00 | 0.00 | 0.00 | 47 | 1016.3 |
| 20260504170547 | 14 | 185 | 11.3 | 20.9 | 0.00 | 0.00 | 0.00 | 47 | 1015.9 |
| 20260504151012 | 12 | 148 | 9.7 | 12.9 | 0.00 | 0.00 | 0.00 | 47 | 1015.9 |
| 20260504150555 | 12 | 177 | 11.3 | 17.7 | 0.00 | 0.00 | 0.00 | 49 | 1016.0 |
| 20260504141011 | 10 | 146 | 12.9 | 25.7 | 0.00 | 0.00 | 0.00 | 57 | 1015.8 |
| 20260504140555 | 10 | 137 | 14.5 | 24.1 | 0.00 | 0.00 | 0.00 | 57 | 1015.6 |
| 20260504130555 | 10 | 136 | 11.3 | 19.3 | 0.00 | 0.00 | 0.00 | 57 | 1015.5 |
| 20260504110513 | 10 | 101 | 4.8 | 9.7 | 0.00 | 0.00 | 0.00 | 59 | 1015.7 |
| 20260504100555 | 11 | 127 | 12.9 | 16.1 | 0.00 | 0.00 | 0.00 | 56 | 1015.8 |